Weather History for KGWO - February, 2013

Change the Weather History Date:

Saturday, February 2, 2013

  Actual Average Record
Temperature  
Mean Temperature 45 °F 45 °F  
Max Temperature 55 °F 55 °F 78 °F (1989)
Min Temperature 34 °F 34 °F -1 °F (1951)
Degree Days  
Heating Degree Days 20 20  
Month to date heating degree days 48 41  
Since 1 July heating degree days 1615 1780  
Cooling Degree Days 0 0  
Month to date cooling degree days 0 0  
Year to date cooling degree days 12 2  
Moisture  
Dew Point 32 °F    
Average Humidity 58    
Maximum Humidity 71    
Minimum Humidity 44    
Precipitation  
Precipitation T in 0.16 in 1.95 in (2014)
Month to date precipitation T 0.32  
Year to date precipitation 8.64 4.84  
Sea Level Pressure  
Sea Level Pressure 30.24 in    
Wind  
Wind Speed 9 mph (SSW)    
Max Wind Speed 16 mph    
Max Gust Speed 20 mph    
Visibility 10 miles    
Events      
T = Trace of Precipitation, MM = Missing Value Source: NWS Daily Summary

Daily Weather History Graph

Daily Weather History Graph

Search for Another Location

Airport or City:

Trip Planner

Search our weather history database for the weather conditions in past years. The results will help you decide how hot, cold, wet, or windy it might be!

Date:

Astronomy

Feb. 02, 2013 Rise Set
Actual Time 6:55 AM CST 5:33 PM CST
Civil Twilight 6:29 AM CST 5:59 PM CST
Nautical Twilight 5:59 AM CST 6:28 PM CST
Astronomical Twilight 5:30 AM CST 6:58 PM CST
Moon No Moon Rise 10:28 AM CST (2/2)
Length of Visible Light 11h 29m
Length of Day
10h 37m
Waning Gibbous, 59% of the Moon is Illuminated
Feb 2
Waning Gibbous
Feb 3
Last Quarter
Feb 10
New
Feb 17
First Quarter
Feb 25
Full

Hourly Weather History & Observations

Time (CST) Temp. Windchill Dew Point Humidity Pressure Visibility Wind Dir Wind Speed Gust Speed Precip Events Conditions
12:53 AM 36.0 °F 32.1 °F 16.0 °F 44% 30.30 in 10.0 mi SE 4.6 mph - N/A   Clear
1:53 AM 36.0 °F 28.5 °F 17.1 °F 46% 30.29 in 10.0 mi South 10.4 mph - N/A   Clear
2:53 AM 35.6 °F 29.9 °F 19.4 °F 52% 30.27 in 10.0 mi South 6.9 mph - N/A   Clear
3:53 AM 37.9 °F 30.5 °F 19.9 °F 48% 30.25 in 10.0 mi South 11.5 mph - N/A   Scattered Clouds
4:53 AM 37.0 °F 29.3 °F 21.0 °F 52% 30.25 in 10.0 mi South 11.5 mph - N/A   Clear
6:53 AM 39.0 °F 32.8 °F 27.0 °F 62% 30.25 in 10.0 mi SSW 9.2 mph - N/A   Mostly Cloudy
7:53 AM 41.0 °F - 28.0 °F 60% 30.29 in 10.0 mi Calm Calm - N/A   Mostly Cloudy
8:53 AM 45.0 °F 41.2 °F 30.0 °F 56% 30.27 in 10.0 mi South 6.9 mph - N/A   Partly Cloudy
9:53 AM 48.9 °F - 35.1 °F 59% 30.26 in 10.0 mi SW 12.7 mph - N/A   Mostly Cloudy
10:53 AM 54.0 °F - 39.0 °F 57% 30.24 in 10.0 mi SSW 9.2 mph - N/A   Mostly Cloudy
11:53 AM 53.1 °F - 39.9 °F 61% 30.22 in 10.0 mi SW 5.8 mph - 0.00 in   Overcast
12:53 PM 55.0 °F - 42.1 °F 62% 30.18 in 10.0 mi SW 12.7 mph 18.4 mph N/A   Overcast
1:53 PM 50.0 °F - 41.0 °F 71% 30.20 in 10.0 mi NNW 9.2 mph - 0.00 in   Overcast
2:53 PM 52.0 °F - 42.1 °F 69% 30.19 in 10.0 mi West 5.8 mph - N/A   Overcast
3:53 PM 54.0 °F - 41.0 °F 62% 30.20 in 10.0 mi Variable 5.8 mph - N/A   Clear
4:53 PM 53.1 °F - 39.9 °F 61% 30.20 in 10.0 mi Variable 4.6 mph - N/A   Clear
5:53 PM 50.0 °F - 39.9 °F 68% 30.20 in 10.0 mi Calm Calm - N/A   Clear
6:53 PM 41.0 °F - 37.9 °F 89% 30.22 in 10.0 mi Calm Calm - N/A   Clear
7:53 PM 39.0 °F - 37.0 °F 93% 30.23 in 10.0 mi Calm Calm - N/A   Clear
8:53 PM 37.0 °F - 36.0 °F 96% 30.25 in 10.0 mi Calm Calm - N/A   Clear
9:53 PM 35.1 °F - 34.0 °F 96% 30.24 in 10.0 mi Calm Calm - N/A   Clear
10:53 PM 32.0 °F 28.7 °F 30.9 °F 96% 30.24 in 10.0 mi ENE 3.5 mph - N/A   Clear
11:53 PM 32.0 °F - 30.9 °F 96% 30.24 in 10.0 mi Calm Calm - N/A   Clear